This is the latest recevied weather packets stored in our database for station/object W4OTS. If no packets are shown the sender has not sent any weather packets the latest 10 day(s).
| Time | Temp. | Humidity | Pressure | Rain* | Wind** | Luminosity | Snow |
|---|---|---|---|---|---|---|---|
| 1777897879 | 10.56° C | 82% | 1019.4 hPa | 0 mm | - | 47 W/m² | - |
| 1777897575 | 10° C | 82% | 1019.4 hPa | 0 mm | - | 46 W/m² | - |
| 1777897270 | 9.44° C | 84% | 1019.5 hPa | 0 mm | - | 44 W/m² | - |
| 1777896967 | 9.44° C | 84% | 1019.3 hPa | 0 mm | - | 42 W/m² | - |
| 1777896664 | 8.89° C | 85% | 1019.4 hPa | 0 mm | - | 40 W/m² | - |
| 1777896361 | 8.89° C | 85% | 1019.3 hPa | 0 mm | - | 39 W/m² | - |
| 1777896059 | 8.33° C | 87% | 1019.3 hPa | 0 mm | - | 38 W/m² | - |
| 1777895756 | 7.78° C | 89% | 1018.9 hPa | 0 mm | - | 36 W/m² | - |
| 1777895453 | 7.22° C | 90% | 1019.3 hPa | 0 mm | - | 35 W/m² | - |
| 1777895151 | 6.67° C | 93% | 1019.3 hPa | 0 mm | - | 35 W/m² | - |
| 1777894848 | 6.67° C | 95% | 1019.1 hPa | 0 mm | - | 32 W/m² | - |
| 1777894545 | 6.11° C | 96% | 1019 hPa | 0 mm | - | 29 W/m² | - |
| 1777894243 | 6.11° C | 97% | 1019 hPa | 0 mm | - | 27 W/m² | - |
| 1777893939 | 5.56° C | 97% | 1019.2 hPa | 0 mm | - | 24 W/m² | - |
| 1777893636 | 5.56° C | 98% | 1019.1 hPa | 0 mm | - | 22 W/m² | - |
| 1777893332 | 5° C | 98% | 1018.8 hPa | 0 mm | - | 21 W/m² | - |
| 1777893028 | 5° C | 98% | 1018.8 hPa | 0 mm | - | 18 W/m² | - |
| 1777892726 | 5° C | 97% | 1018.6 hPa | 0 mm | - | 16 W/m² | - |
| 1777892421 | 5° C | 97% | 1018.9 hPa | 0 mm | - | 15 W/m² | - |
| 1777892117 | 5° C | 98% | 1019 hPa | 0 mm | - | 11 W/m² | - |
| 1777891815 | 5° C | 97% | 1018.9 hPa | 0 mm | - | 7 W/m² | - |
| 1777891511 | 5° C | 97% | 1019.1 hPa | 0 mm | - | 5 W/m² | - |
| 1777891208 | 5° C | 97% | 1018.8 hPa | 0 mm | - | 3 W/m² | - |
| 1777890902 | 5.56° C | 97% | 1019 hPa | 0 mm | - | 2 W/m² | - |
| 1777890598 | 5.56° C | 97% | 1019 hPa | 0 mm | - | 0 W/m² | - |
* Rain latest hour (hover to see other rain measurements)
** Current wind speed in m/s (hover to see current wind gust speed)